GW1546 Weather Reports


time (UTC)temp
C
wind
direction
speed
KPH
gust
KPH
rain 1hr
cm
rain 24hr
cm
rain mn
cm
humidity
%
barometer
mb
20260504081814 5 191 4.8 4.8 0.00 0.00 0.00 92 987.8
20260504081216 5 180 3.2 3.2 0.00 0.00 0.00 92 988.1
20260504080626 5 186 1.6 3.2 0.00 0.00 0.00 91 987.8
20260504045417 8 173 1.6 3.2 0.00 0.00 0.00 78 988.8
20260504044831 8 199 3.2 4.8 0.00 0.00 0.00 78 988.8
20260504044221 8 187 1.6 1.6 0.00 0.00 0.00 78 988.4
20260504043642 8 167 0.0 1.6 0.00 0.00 0.00 76 988.4
20260504043048 8 122 1.6 1.6 0.00 0.00 0.00 75 988.4
20260504042431 8 97 0.0 3.2 0.00 0.00 0.00 74 988.4
20260504041228 8 99 0.0 1.6 0.00 0.00 0.00 76 988.4
20260504040644 8 113 0.0 1.6 0.00 0.00 0.00 77 988.4
20260504040029 8 173 1.6 3.2 0.00 0.00 0.00 76 988.4
20260504035428 8 184 1.6 1.6 0.00 0.00 0.00 77 988.8
20260504034214 8 184 1.6 1.6 0.00 0.00 0.00 78 988.4
20260504033612 8 188 1.6 1.6 0.00 0.00 0.00 77 988.4
20260504033036 8 192 1.6 3.2 0.00 0.00 0.00 76 988.4
20260504031244 8 203 1.6 1.6 0.00 0.00 0.00 75 988.4
20260504030018 8 193 1.6 1.6 0.00 0.00 0.00 75 988.4
20260504025413 8 188 1.6 1.6 0.00 0.00 0.00 76 988.4
20260504024824 8 200 1.6 1.6 0.00 0.00 0.00 76 988.4
20260504024220 8 217 0.0 1.6 0.00 0.00 0.00 75 988.4
20260504023633 8 208 1.6 1.6 0.00 0.00 0.00 75 988.1
20260504023027 8 202 1.6 1.6 0.00 0.00 0.00 75 988.4
20260504022437 8 184 3.2 3.2 0.00 0.00 0.00 76 988.1
20260504021834 7 202 0.0 1.6 0.00 0.00 0.00 78 988.4
20260504020620 7 202 1.6 1.6 0.00 0.00 0.00 77 988.1
20260504020020 7 201 1.6 3.2 0.00 0.00 0.00 78 988.4
20260504015443 7 202 1.6 3.2 0.00 0.00 0.00 78 988.4
20260504014826 7 199 0.0 1.6 0.00 0.00 0.00 77 988.1
20260504014244 7 200 1.6 1.6 0.00 0.00 0.00 77 988.1
20260504013650 7 198 0.0 1.6 0.00 0.00 0.00 77 988.1
20260504012412 8 207 1.6 1.6 0.00 0.00 0.00 76 987.8
20260504011837 8 213 0.0 1.6 0.00 0.00 0.00 75 988.1
20260504011214 8 202 0.0 1.6 0.00 0.00 0.00 75 987.8
20260504010635 8 202 0.0 1.6 0.00 0.00 0.00 74 987.8
20260504010049 8 202 0.0 0.0 0.00 0.00 0.00 74 987.8
20260504005438 8 201 0.0 1.6 0.00 0.00 0.00 73 987.8
20260504004247 10 233 0.0 1.6 0.00 0.00 0.00 71 987.8
20260504003614 10 210 0.0 1.6 0.00 0.00 0.00 69 987.8
20260504003040 10 181 0.0 1.6 0.00 0.00 0.00 66 987.8
20260504002436 10 92 1.6 1.6 0.00 0.00 0.00 66 987.4
20260504001818 10 205 0.0 1.6 0.00 0.00 0.00 64 987.4
20260504001219 11 230 3.2 3.2 0.00 0.00 0.00 64 987.4
20260504000654 11 125 1.6 3.2 0.00 0.00 0.00 60 987.4
20260504000042 11 213 0.0 4.8 0.00 0.00 0.00 62 987.4
20260503235412 11 215 0.0 3.2 0.00 0.00 0.00 60 987.4
20260503234815 11 229 0.0 1.6 0.00 0.00 0.00 59 987.4
20260503234236 12 244 0.0 1.6 0.00 0.00 0.00 57 987.4
20260503233627 12 238 0.0 1.6 0.00 0.00 0.00 58 987.4
20260503233035 12 291 1.6 1.6 0.00 0.00 0.00 54 987.4
20260503232447 12 232 0.0 1.6 0.00 0.00 0.00 53 987.4
20260503231818 13 257 0.0 1.6 0.00 0.00 0.00 52 987.4
20260503231252 13 253 1.6 1.6 0.00 0.00 0.00 50 987.8
20260503230636 13 224 1.6 3.2 0.00 0.00 0.00 48 987.4
20260503230041 13 284 0.0 1.6 0.00 0.00 0.00 49 987.4
20260503224223 15 285 1.6 1.6 0.00 0.00 0.00 43 987.4
20260503223614 16 232 3.2 6.4 0.00 0.00 0.00 40 987.4
20260503223014 16 294 0.0 1.6 0.00 0.00 0.00 38 987.8
20260503222422 17 291 3.2 3.2 0.00 0.00 0.00 33 987.4
20260503221820 17 237 1.6 3.2 0.00 0.00 0.00 33 987.8
20260503221224 18 321 3.2 6.4 0.00 0.00 0.00 34 987.8
20260503220654 17 210 1.6 6.4 0.00 0.00 0.00 30 987.8
20260503220044 18 38 0.0 3.2 0.00 0.00 0.00 32 987.8
20260503215439 18 42 0.0 3.2 0.00 0.00 0.00 32 987.8
20260503214810 18 286 3.2 4.8 0.00 0.00 0.00 29 987.8
20260503214224 18 0 0.0 3.2 0.00 0.00 0.00 35 987.8
20260503213647 18 147 0.0 6.4 0.00 0.00 0.00 28 987.8
20260503212440 18 93 0.0 3.2 0.00 0.00 0.00 33 987.8
20260503211827 17 182 6.4 11.3 0.00 0.00 0.00 29 987.8
20260503211227 18 244 1.6 6.4 0.00 0.00 0.00 30 988.1
20260503210647 18 179 1.6 4.8 0.00 0.00 0.00 29 987.8
20260503210017 18 115 3.2 6.4 0.00 0.00 0.00 31 987.8
20260503205430 18 292 0.0 3.2 0.00 0.00 0.00 28 988.1
20260503204242 18 14 3.2 4.8 0.00 0.00 0.00 31 988.1
20260503203038 17 254 1.6 4.8 0.00 0.00 0.00 29 988.4
20260503202422 17 275 3.2 6.4 0.00 0.00 0.00 31 988.4
20260503201816 17 215 3.2 9.7 0.00 0.00 0.00 30 988.4
20260503201234 17 197 3.2 4.8 0.00 0.00 0.00 28 988.4
20260503200625 17 260 1.6 4.8 0.00 0.00 0.00 30 988.8
20260503200026 17 182 0.0 6.4 0.00 0.00 0.00 33 988.8
20260503195409 17 213 0.0 3.2 0.00 0.00 0.00 30 988.8
20260503194821 17 266 1.6 3.2 0.00 0.00 0.00 33 989.1
20260503194241 17 138 3.2 3.2 0.00 0.00 0.00 33 989.5
20260503193621 18 335 3.2 16.1 0.00 0.00 0.00 31 989.5
20260503193043 17 211 1.6 3.2 0.00 0.00 0.00 34 989.5
20260503192436 17 51 3.2 4.8 0.00 0.00 0.00 33 989.5
20260503191842 17 201 3.2 11.3 0.00 0.00 0.00 31 989.5
20260503191249 16 63 3.2 4.8 0.00 0.00 0.00 31 989.8
20260503190636 16 234 9.7 12.9 0.00 0.00 0.00 31 990.1
20260503190052 17 247 3.2 6.4 0.00 0.00 0.00 31 990.1
20260503185423 16 196 3.2 3.2 0.00 0.00 0.00 34 990.1
20260503184846 16 320 1.6 4.8 0.00 0.00 0.00 31 990.1
20260503184216 16 259 1.6 9.7 0.00 0.00 0.00 34 990.5
20260503183031 15 33 3.2 3.2 0.00 0.00 0.00 32 990.8
20260503182446 15 220 4.8 11.3 0.00 0.00 0.00 35 990.5
20260503181853 16 286 9.7 12.9 0.00 0.00 0.00 34 990.5
20260503181236 16 248 3.2 6.4 0.00 0.00 0.00 34 990.5
20260503180651 16 263 8.0 14.5 0.00 0.00 0.00 35 990.5
20260503180026 15 160 1.6 6.4 0.00 0.00 0.00 35 990.5
20260503175417 16 237 0.0 3.2 0.00 0.00 0.00 38 990.8
20260503174820 15 85 1.6 3.2 0.00 0.00 0.00 39 991.1
20260503174213 14 165 1.6 4.8 0.00 0.00 0.00 37 991.1
20260503173627 14 289 9.7 11.3 0.00 0.00 0.00 35 991.1
20260503173035 15 308 9.7 14.5 0.00 0.00 0.00 36 991.1
20260503172413 13 263 3.2 3.2 0.00 0.00 0.00 40 991.1
20260503171814 14 168 3.2 9.7 0.00 0.00 0.00 38 991.1
20260503171254 14 268 4.8 4.8 0.00 0.00 0.00 36 991.5
20260503150630 11 172 1.6 9.7 0.00 0.00 0.00 41 992.8
20260503130620 7 39 0.0 0.0 0.00 0.00 0.00 81 993.2
20260503110645 0 239 1.6 3.2 0.00 0.00 0.00 99 992.5